Flight Track Log - Related Links

Times and Time Zones

All times are in EST time to prevent confusion due to time zone crossing. See the N1944E flight status page for this flight to view local times or setup timezone preferences in your user account.

Time Position Orientation Groundspeed Altitude Reporting Facility
EST Latitude Longitude Course Direction KTS MPH feet Rate Location/Type
Fri 11:19:53 AM 41.6217 -109.0983 331° Northwest 135 155 8,800  Level Salt Lake Center
Fri 11:20:55 AM 41.6428 -109.0486 60° Northeast 164 189 9,500 1,113 Climbing Salt Lake Center
Fri 11:21:57 AM 41.6728 -109.0442 North 131 151 11,100 1,355 Climbing Salt Lake Center
Fri 11:22:59 AM 41.7067 -109.0464 357° North 115 132 12,300 1,113 Climbing Salt Lake Center
Fri 11:24:00 AM 41.8613 -109.0616 North  Level Estimated
Fri 11:24:01 AM 41.7347 -109.0533 350° North 109 125 13,400  Level Salt Lake Center
Fri 11:25:02 AM 41.7722 -109.0542 359° North 117 135 14,500 1,024 Climbing Salt Lake Center
Fri 11:26:04 AM 41.8047 -109.0544 360° North 121 139 15,500 726 Climbing Salt Lake Center
Fri 11:27:06 AM 41.8464 -109.0533 North 130 150 16,000 242 Climbing Salt Lake Center
Fri 11:28:08 AM 41.8886 -109.0531 360° North 150 173 16,000  Level Salt Lake Center
Fri 11:29:10 AM 41.9369 -109.0536 360° North 156 180 16,000  Level Salt Lake Center
Fri 11:30:12 AM 41.9789 -109.0525 North 156 180 16,000  Level Salt Lake Center
Fri 11:31:13 AM 42.0281 -109.0525 360° North 158 182 16,000  Level Salt Lake Center
Fri 11:32:15 AM 42.0683 -109.0533 359° North 155 178 16,000  Level Salt Lake Center
Fri 11:33:17 AM 42.1097 -109.0525 North 155 178 16,000  Level Salt Lake Center
Fri 11:34:19 AM 42.1575 -109.0461 North 155 178 16,000  Level Salt Lake Center
Fri 11:35:21 AM 42.1992 -109.0456 North 156 180 16,000  Level Salt Lake Center
Fri 11:36:23 AM 42.2450 -109.0511 355° North 149 171 16,000  Level Salt Lake Center
Fri 11:37:25 AM 42.2844 -109.0500 North 149 171 16,000  Level Salt Lake Center
Fri 11:38:27 AM 42.3308 -109.0503 360° North 149 171 16,000  Level Salt Lake Center
Fri 11:39:29 AM 42.3706 -109.0481 North 149 171 16,000  Level Salt Lake Center
Fri 11:40:31 AM 42.4142 -109.0469 North 143 165 16,000 -48 Level Salt Lake Center
Fri 11:41:33 AM 42.4533 -109.0481 359° North 145 167 15,900 -49 Descending Salt Lake Center
Fri 11:42:34 AM 42.4989 -109.0467 North 146 168 15,900  Level Salt Lake Center
Fri 11:43:36 AM 42.5383 -109.0456 North 148 170 15,900  Level Salt Lake Center
Fri 11:44:38 AM 42.5772 -109.0447 North 147 169 15,900  Level Salt Lake Center
Fri 11:45:40 AM 42.6206 -109.0456 359° North 142 163 15,900  Level Salt Lake Center
Fri 11:46:42 AM 42.6581 -109.0450 North 141 162 15,900  Level Salt Lake Center
Fri 11:47:44 AM 42.7017 -109.0456 359° North 141 162 15,900  Level Salt Lake Center
Fri 11:48:46 AM 42.7367 -109.0478 357° North 134 154 15,900  Level Salt Lake Center
Fri 11:49:48 AM 42.7761 -109.0450 North 128 147 15,900  Level Salt Lake Center
Fri 11:50:50 AM 42.8119 -109.0456 359° North 132 152 15,900  Level Salt Lake Center
Fri 11:51:52 AM 42.8561 -109.0461 359° North 140 161 15,900  Level Salt Lake Center
Fri 11:52:54 AM 42.8917 -109.0428 North 136 157 15,900  Level Salt Lake Center
Fri 11:53:56 AM 42.9333 -109.0442 359° North 134 154 15,900  Level Salt Lake Center
Fri 11:54:58 AM 42.9697 -109.0442 360° North 136 157 15,900  Level Salt Lake Center
Fri 11:55:59 AM 43.0117 -109.0422 North 137 158 15,900  Level Salt Lake Center
Fri 11:57:01 AM 43.0533 -109.0419 360° North 146 168 15,900  Level Salt Lake Center
Fri 11:58:03 AM 43.0942 -109.0411 North 147 169 15,900  Level Salt Lake Center
Fri 11:59:05 AM 43.1364 -109.0397 North 151 174 15,900  Level Salt Lake Center
Fri 12:00:07 PM 43.1769 -109.0392 North 148 170 15,900  Level Salt Lake Center
Fri 12:01:09 PM 43.2172 -109.0378 North 146 168 15,900  Level Salt Lake Center
Fri 12:02:11 PM 43.2694 -109.0347 North 155 178 15,900  Level Salt Lake Center
Fri 12:03:13 PM 43.3136 -109.0356 359° North 158 182 15,900  Level Salt Lake Center
Fri 12:04:15 PM 43.3572 -109.0350 North 157 181 15,900  Level Salt Lake Center
Fri 12:05:17 PM 43.4003 -109.0350 360° North 157 181 15,900  Level Salt Lake Center
Fri 12:06:19 PM 43.4431 -109.0333 North 155 178 15,900  Level Salt Lake Center
Fri 12:07:21 PM 43.4844 -109.0325 North 153 176 15,900  Level Salt Lake Center
Fri 12:08:23 PM 43.5336 -109.0331 360° North 150 173 15,900  Level Salt Lake Center
Fri 12:09:25 PM 43.5733 -109.0333 360° North 147 169 15,900 -48 Level Salt Lake Center
Fri 12:10:27 PM 43.6139 -109.0333 360° North 145 167 15,800 -48 Descending Salt Lake Center
Fri 12:11:29 PM 43.6564 -109.0372 356° North 147 169 15,800 48 Level Salt Lake Center
Fri 12:12:31 PM 43.6983 -109.0417 356° North 150 173 15,900  Climbing Salt Lake Center
Fri 12:13:33 PM 43.7389 -109.0425 359° North 148 170 15,800 -97 Descending Salt Lake Center
Fri 12:14:35 PM 43.7781 -109.0406 North 147 169 15,700  Descending Salt Lake Center
Fri 12:15:36 PM 43.8250 -109.0392 North 142 163 15,800 98 Climbing Salt Lake Center

Login

Don't have an account? Register now (free) for customized features, flight alerts, and more!